EW9394 Weather Reports


time (UTC)temp
F
wind
direction
speed
knots
gust
knots
rain 1hr
in
rain 24hr
in
rain mn
in
humidity
%
barometer
mb
20260502162602 71 169 0.0 0.0 0.00 0.00 0.00 40 1023.8
20260502162059 71 316 1.7 1.7 0.00 0.00 0.00 41 1024.0
20260502161556 71 329 1.7 1.7 0.00 0.00 0.00 41 1023.8
20260502161054 71 315 1.7 2.6 0.00 0.00 0.00 41 1023.7
20260502160552 70 255 0.9 0.9 0.00 0.00 0.00 42 1023.6
20260502152004 68 45 0.0 0.0 0.00 0.00 0.00 47 1023.5
20260502151501 67 346 0.9 0.9 0.00 0.00 0.00 47 1023.6
20260502150958 67 334 0.9 1.7 0.00 0.00 0.00 46 1023.7
20260502150455 67 295 1.7 1.7 0.00 0.00 0.00 48 1023.4
20260502130341 55 258 1.7 1.7 0.00 0.00 0.00 90 1022.7
20260502123323 52 250 0.0 0.0 0.00 0.00 0.00 96 1022.2
20260502122821 51 250 0.0 0.0 0.00 0.00 0.00 96 1022.3
20260502122316 51 249 0.0 0.0 0.00 0.00 0.00 96 1022.2
20260502121815 51 249 0.0 0.0 0.00 0.00 0.00 96 1022.0
20260502121312 50 249 0.0 0.0 0.00 0.00 0.00 96 1021.7
20260502120809 50 249 0.0 0.0 0.00 0.00 0.00 95 1021.6
20260502120305 50 249 0.0 0.0 0.00 0.00 0.00 95 1021.6
20260502115803 50 249 0.0 0.0 0.00 0.00 0.00 95 1021.7
20260502115300 50 249 0.0 0.0 0.00 0.00 0.00 95 1021.7
20260502114756 50 249 0.0 0.0 0.00 0.00 0.00 94 1021.5
20260502114253 50 249 0.0 0.0 0.00 0.00 0.00 94 1021.3
20260502113750 50 249 0.0 0.0 0.00 0.00 0.00 93 1021.3
20260502113248 51 249 0.0 0.0 0.00 0.00 0.00 93 1021.3
20260502112746 51 249 0.0 0.0 0.00 0.00 0.00 93 1021.3
20260502112243 51 249 0.0 0.0 0.00 0.00 0.00 93 1021.2
20260502111740 51 249 0.0 0.0 0.00 0.00 0.00 93 1021.2
20260502111237 51 249 0.0 0.0 0.00 0.00 0.00 93 1021.1
20260502110735 51 249 0.9 0.9 0.00 0.00 0.00 94 1021.1
20260502110232 51 249 0.0 0.9 0.00 0.00 0.00 94 1021.1
20260502105730 51 249 0.0 0.9 0.00 0.00 0.00 94 1021.2
20260502105226 50 249 0.0 0.0 0.00 0.00 0.00 94 1021.2
20260502104724 50 249 0.0 0.0 0.00 0.00 0.00 93 1021.2
20260502104222 50 249 0.0 0.0 0.00 0.00 0.00 93 1021.0
20260502103719 51 249 0.0 0.0 0.00 0.00 0.00 93 1021.0
20260502103217 51 249 0.0 0.0 0.00 0.00 0.00 92 1020.8
20260502102713 51 249 0.0 0.0 0.00 0.00 0.00 92 1020.6
20260502102210 51 249 0.0 0.0 0.00 0.00 0.00 92 1020.7
20260502101708 51 249 0.0 0.0 0.00 0.00 0.00 91 1020.6
20260502101206 51 249 0.0 0.0 0.00 0.00 0.00 91 1020.6
20260502100704 51 249 0.0 0.0 0.00 0.00 0.00 90 1020.7
20260502100202 52 249 0.0 0.0 0.00 0.00 0.00 90 1020.8
20260502091136 53 247 0.0 0.0 0.00 0.00 0.00 90 1020.7
20260502090633 53 247 0.0 0.9 0.00 0.00 0.00 90 1020.7
20260502090130 53 249 0.0 0.9 0.00 0.00 0.00 90 1020.5
20260502071528 51 172 0.0 0.0 0.00 0.00 0.00 95 1020.6
20260502071026 51 172 0.0 0.0 0.00 0.00 0.00 95 1020.7
20260502070523 51 172 0.0 0.0 0.00 0.00 0.00 95 1020.8
20260502070022 51 172 0.0 0.0 0.00 0.00 0.00 94 1020.6
20260502065520 51 172 0.0 0.0 0.00 0.00 0.00 94 1020.6
20260502065017 52 172 0.0 0.0 0.00 0.00 0.00 94 1020.9
20260502064515 52 172 0.0 0.0 0.00 0.00 0.00 94 1020.9
20260502064012 52 172 0.0 0.0 0.00 0.00 0.00 94 1020.8
20260502063510 52 172 0.0 0.0 0.00 0.00 0.00 94 1020.9
20260502063008 51 172 0.0 0.0 0.00 0.00 0.00 93 1021.0
20260502062504 52 172 0.0 0.0 0.00 0.00 0.00 93 1020.7
20260502062003 52 172 0.0 0.0 0.00 0.00 0.00 93 1020.6
20260502061500 52 172 0.0 0.0 0.00 0.00 0.00 93 1020.8
20260502060956 53 172 0.0 0.0 0.00 0.00 0.00 93 1020.6
20260502060451 53 172 0.0 0.0 0.00 0.00 0.00 93 1020.7
20260502055948 53 172 0.0 0.0 0.00 0.00 0.00 92 1020.7
20260502055446 53 172 0.0 0.0 0.00 0.00 0.00 92 1020.8
20260502054940 53 172 0.0 0.0 0.00 0.00 0.00 93 1020.8
20260502054438 53 172 0.0 0.0 0.00 0.00 0.00 92 1020.7
20260502053935 53 172 0.0 0.0 0.00 0.00 0.00 92 1020.7
20260502053432 53 172 0.0 0.0 0.00 0.00 0.00 92 1020.7
20260502052930 53 172 0.0 0.0 0.00 0.00 0.00 92 1020.7
20260502052428 53 172 0.0 0.0 0.00 0.00 0.00 92 1020.8
20260502051926 53 172 0.0 0.0 0.00 0.00 0.00 91 1020.8
20260502051424 53 172 0.0 0.0 0.00 0.00 0.00 91 1020.6
20260502050920 54 172 0.0 0.0 0.00 0.00 0.00 91 1020.6
20260502050417 54 172 0.0 0.0 0.00 0.00 0.00 90 1020.7
20260502045914 54 172 0.0 0.0 0.00 0.00 0.00 90 1020.7
20260502045411 54 172 0.0 0.0 0.00 0.00 0.00 90 1020.7
20260502044908 54 172 0.0 0.0 0.00 0.00 0.00 89 1020.5
20260502044403 54 172 0.0 0.0 0.00 0.00 0.00 89 1020.7
20260502043901 54 172 0.0 0.0 0.00 0.00 0.00 88 1020.6
20260502043358 55 172 0.0 0.0 0.00 0.00 0.00 88 1020.7
20260502042857 55 172 0.0 0.0 0.00 0.00 0.00 88 1020.4
20260502042355 55 172 0.0 0.0 0.00 0.00 0.00 87 1020.5
20260502041852 55 172 0.0 0.0 0.00 0.00 0.00 87 1020.4
20260502041349 55 172 0.0 0.0 0.00 0.00 0.00 86 1020.4
20260502040847 55 172 0.0 0.0 0.00 0.00 0.00 85 1020.5
20260502040344 55 172 0.0 0.0 0.00 0.00 0.00 85 1020.4
20260502035840 56 172 0.0 0.0 0.00 0.00 0.00 85 1020.5
20260502035336 56 172 0.0 0.0 0.00 0.00 0.00 84 1020.7
20260502034834 56 172 0.0 0.0 0.00 0.00 0.00 83 1020.6
20260502034332 57 172 0.0 0.0 0.00 0.00 0.00 82 1020.5
20260502033831 57 172 0.0 0.0 0.00 0.00 0.00 81 1020.7
20260502033328 57 172 0.0 0.0 0.00 0.00 0.00 81 1020.6
20260502032824 58 172 0.0 0.0 0.00 0.00 0.00 80 1020.4
20260502032320 58 172 0.0 0.0 0.00 0.00 0.00 79 1020.4
20260502031818 59 172 0.0 0.0 0.00 0.00 0.00 77 1020.4
20260502031316 59 172 0.0 0.0 0.00 0.00 0.00 75 1020.3
20260502030814 60 172 0.0 0.0 0.00 0.00 0.00 75 1019.9
20260502030312 59 172 0.0 0.9 0.00 0.00 0.00 77 1019.9
20260502025809 59 172 0.0 0.0 0.00 0.00 0.00 78 1020.2
20260502025307 59 172 0.0 0.0 0.00 0.00 0.00 78 1020.3
20260502024805 59 172 0.0 0.0 0.00 0.00 0.00 78 1020.1
20260502024302 59 172 0.0 0.0 0.00 0.00 0.00 77 1020.1
20260502023800 59 172 0.0 0.0 0.00 0.00 0.00 77 1020.1
20260502023258 59 172 0.0 0.0 0.00 0.00 0.00 77 1020.2
20260502022755 60 172 0.0 0.0 0.00 0.00 0.00 77 1020.1
20260502022251 59 172 0.9 0.9 0.00 0.00 0.00 76 1019.7
20260502021748 60 172 0.0 0.0 0.00 0.00 0.00 76 1019.9
20260502021245 60 172 0.0 0.0 0.00 0.00 0.00 76 1019.8
20260502020743 60 172 0.0 0.0 0.00 0.00 0.00 76 1019.6
20260502020240 60 172 0.0 0.0 0.00 0.00 0.00 75 1019.5
20260502015738 60 172 0.0 0.0 0.00 0.00 0.00 75 1019.2
20260502015233 60 172 0.0 0.0 0.00 0.00 0.00 75 1019.0
20260502014731 61 172 0.0 0.0 0.00 0.00 0.00 74 1019.0
20260502014228 61 172 0.9 0.9 0.00 0.00 0.00 74 1019.0
20260502013724 61 170 0.9 0.9 0.00 0.00 0.00 74 1018.6
20260502013220 61 170 0.0 0.0 0.00 0.00 0.00 73 1018.7
20260502012717 61 170 0.0 0.9 0.00 0.00 0.00 73 1018.7
20260502012215 62 170 0.9 1.7 0.00 0.00 0.00 72 1018.4
20260502011712 61 173 0.0 0.9 0.00 0.00 0.00 73 1018.4
20260502011207 61 173 0.0 0.0 0.00 0.00 0.00 72 1018.3
20260502010706 62 174 0.0 0.0 0.00 0.00 0.00 72 1018.2
20260502010201 62 174 0.0 0.0 0.00 0.00 0.00 71 1018.0
20260502005658 62 174 0.9 0.9 0.00 0.00 0.00 71 1018.3
20260502005156 62 174 0.0 0.0 0.00 0.00 0.00 70 1018.2
20260502004652 62 175 0.0 0.0 0.00 0.00 0.00 70 1018.2
20260502004149 62 175 0.0 0.0 0.00 0.00 0.00 70 1018.1
20260502003647 62 175 0.0 0.0 0.00 0.00 0.00 70 1018.0
20260502003144 62 177 0.0 0.0 0.00 0.00 0.00 69 1017.9
20260502002640 62 168 0.0 0.0 0.00 0.00 0.00 68 1018.3
20260502002137 62 168 0.0 0.0 0.00 0.00 0.00 68 1018.1
20260502001635 62 165 0.0 0.0 0.00 0.00 0.00 68 1018.1
20260502001132 62 159 0.0 0.0 0.00 0.00 0.00 68 1017.9
20260502000630 63 149 0.0 0.0 0.00 0.00 0.00 68 1017.7
20260502000127 63 142 0.0 0.0 0.00 0.00 0.00 67 1017.5
20260501235623 63 144 0.0 0.0 0.00 0.00 0.00 67 1017.5
20260501235119 63 137 0.0 0.9 0.00 0.00 0.00 67 1017.4
20260501234615 63 109 0.0 0.0 0.00 0.00 0.00 67 1017.2
20260501234112 63 69 0.0 0.9 0.00 0.00 0.00 66 1017.2
20260501233611 63 151 0.0 0.9 0.00 0.00 0.00 66 1017.1
20260501233108 63 155 0.9 0.9 0.00 0.00 0.00 67 1017.1
20260501232603 64 158 0.0 0.0 0.00 0.00 0.00 66 1017.1
20260501232101 64 156 0.0 0.9 0.00 0.00 0.00 66 1016.9
20260501231558 64 144 0.0 0.9 0.00 0.00 0.00 65 1016.9
20260501231056 64 151 0.0 0.0 0.00 0.00 0.00 65 1017.0
20260501230555 63 142 0.0 0.0 0.00 0.00 0.00 65 1016.8
20260501230053 63 90 0.9 1.7 0.00 0.00 0.00 64 1016.7
20260501225550 63 141 0.0 0.9 0.00 0.00 0.00 64 1017.0
20260501225046 63 127 0.0 0.0 0.00 0.00 0.00 64 1017.0
20260501224544 63 85 0.9 0.9 0.00 0.00 0.00 63 1016.9
20260501224040 64 144 0.0 0.9 0.00 0.00 0.00 63 1016.8
20260501223537 64 135 0.0 0.0 0.00 0.00 0.00 63 1016.7
20260501223033 64 104 0.9 0.9 0.00 0.00 0.00 63 1016.9
20260501222530 64 71 0.0 0.9 0.00 0.00 0.00 62 1016.9
20260501222027 63 88 0.9 0.9 0.00 0.00 0.00 63 1016.9
20260501221523 63 103 0.9 1.7 0.00 0.00 0.00 62 1016.8
20260501221021 63 75 0.9 0.9 0.00 0.00 0.00 62 1016.7
20260501220518 63 135 0.9 1.7 0.00 0.00 0.00 61 1016.6
20260501220015 64 96 0.0 0.9 0.00 0.00 0.00 62 1017.0
20260501215511 64 74 1.7 1.7 0.00 0.00 0.00 62 1016.9
20260501215007 64 92 0.0 0.0 0.00 0.00 0.00 62 1016.9
20260501214502 64 55 0.0 0.9 0.00 0.00 0.00 61 1016.9
20260501213958 64 76 0.9 0.9 0.00 0.00 0.00 62 1016.9
20260501213455 64 78 0.9 0.9 0.00 0.00 0.00 61 1016.7
20260501212956 64 64 0.9 1.7 0.00 0.00 0.00 61 1017.0
20260501212453 64 42 0.0 0.9 0.00 0.00 0.00 62 1016.9
20260501211950 64 54 0.9 0.9 0.00 0.00 0.00 61 1016.9
20260501211447 64 89 0.0 0.9 0.00 0.00 0.00 61 1016.7
20260501210945 65 149 0.9 0.9 0.00 0.00 0.00 62 1016.8
20260501210441 64 59 0.0 0.9 0.00 0.00 0.00 62 1016.9
20260501205938 64 96 0.9 0.9 0.00 0.00 0.00 61 1017.2
20260501205434 64 85 0.9 1.7 0.00 0.00 0.00 61 1017.2
20260501204932 64 52 0.9 1.7 0.00 0.00 0.00 61 1017.3
20260501204427 64 57 0.9 0.9 0.00 0.00 0.00 60 1017.6
20260501203924 64 75 0.9 1.7 0.00 0.00 0.00 61 1017.4
20260501203421 64 46 1.7 1.7 0.00 0.00 0.00 60 1017.5
20260501202919 63 78 0.9 1.7 0.00 0.00 0.00 60 1017.4
20260501202415 64 90 0.0 0.0 0.00 0.00 0.00 61 1017.7
20260501201912 64 118 1.7 4.3 0.00 0.00 0.00 59 1018.3
20260501201409 64 54 2.6 5.2 0.00 0.00 0.00 58 1017.8
20260501200906 64 68 2.6 2.6 0.00 0.00 0.00 58 1017.8
20260501200403 64 59 1.7 1.7 0.00 0.00 0.00 59 1017.9
20260501195901 64 98 0.9 1.7 0.00 0.00 0.00 58 1017.6
20260501195356 64 56 2.6 5.2 0.00 0.00 0.00 58 1017.3
20260501194852 63 70 0.0 1.7 0.00 0.00 0.00 59 1017.1
20260501194348 63 63 1.7 2.6 0.00 0.00 0.00 59 1017.1
20260501193844 63 90 2.6 5.2 0.00 0.00 0.00 58 1017.0
20260501193343 64 54 2.6 2.6 0.00 0.00 0.00 57 1017.1
20260501192841 64 76 0.9 1.7 0.00 0.00 0.00 58 1017.1
20260501192338 63 46 3.5 6.1 0.00 0.00 0.00 56 1017.1
20260501191834 63 61 1.7 2.6 0.00 0.00 0.00 56 1017.1
20260501191332 63 89 2.6 4.3 0.00 0.00 0.00 56 1016.6
20260501190828 63 35 1.7 1.7 0.00 0.00 0.00 58 1017.1
20260501190324 63 67 0.9 1.7 0.00 0.00 0.00 60 1017.3
20260501185820 63 78 0.0 0.0 0.00 0.00 0.00 60 1017.3
20260501185316 64 53 0.9 1.7 0.00 0.00 0.00 61 1017.1
20260501184812 64 82 2.6 5.2 0.00 0.00 0.00 60 1017.2
20260501184308 63 42 0.9 2.6 0.00 0.00 0.00 60 1017.1
20260501183804 63 36 1.7 2.6 0.00 0.00 0.00 59 1017.3
20260501183301 63 72 2.6 4.3 0.00 0.00 0.00 60 1017.5
20260501182757 64 15 2.6 2.6 0.00 0.00 0.00 60 1017.4
20260501182254 64 66 1.7 2.6 0.00 0.00 0.00 61 1017.5
20260501181751 64 71 0.9 0.9 0.00 0.00 0.00 62 1017.8
20260501181248 65 27 1.7 1.7 0.00 0.00 0.00 60 1017.9
20260501180746 65 351 5.2 7.0 0.00 0.00 0.00 59 1017.6
20260501180242 64 66 0.9 0.9 0.00 0.00 0.00 62 1017.9
20260501175738 64 93 1.7 2.6 0.00 0.00 0.00 61 1018.2
20260501175236 64 79 1.7 2.6 0.00 0.00 0.00 63 1018.1
20260501174732 63 43 1.7 2.6 0.00 0.00 0.00 63 1018.2
20260501174230 64 69 2.6 4.3 0.00 0.00 0.00 64 1018.3
20260501173727 62 81 2.6 2.6 0.00 0.00 0.00 64 1018.0
20260501173224 62 98 0.9 1.7 0.00 0.00 0.00 65 1018.2
20260501172720 63 76 1.7 2.6 0.00 0.00 0.00 66 1018.6
20260501172215 63 88 0.9 0.9 0.00 0.00 0.00 66 1018.6
20260501171711 63 61 0.9 0.9 0.00 0.00 0.00 65 1018.6
20260501171209 64 30 0.9 1.7 0.00 0.00 0.00 63 1018.7
20260501170705 64 98 2.6 4.3 0.00 0.00 0.00 63 1018.6
20260501170202 64 61 1.7 2.6 0.00 0.00 0.00 63 1018.7
20260501165700 64 72 1.7 1.7 0.00 0.00 0.00 65 1018.6
20260501165157 62 54 0.9 1.7 0.00 0.00 0.00 67 1018.6
20260501164655 62 99 0.9 0.9 0.00 0.00 0.00 69 1019.1
20260501164151 62 50 0.9 1.7 0.00 0.00 0.00 69 1018.7
20260501163648 61 118 0.9 0.9 0.00 0.00 0.00 72 1018.5
20260501163145 61 61 2.6 5.2 0.00 0.00 0.00 70 1018.7